Location: ??????
(30.0081°N, 31.2109°E)
Time: 07:21:43
(UTC+00:00)

SME Rocket - Pass Details

Date: 03 March 2021
Orbit: 550 x 2652 km, 99.9° (Epoch: 15 April)

Event Time Altitude Azimuth Distance (km) Brightness Sun altitude
Rises 17:15:17 0° 17° (NNE) 4,364 7.3 -18.0°
Reaches altitude 10° 17:18:32 10° 20° (NNE) 3,074 6.4 -18.7°
Maximum altitude 17:25:01 60° 100° (E) 961 3.6 -20.1°
Drops below altitude 10° 17:29:27 10° 180° (S) 2,112 5.7 -21.1°
Sets 17:31:21 0° 185° (S) 2,900 6.5 -21.5°
